Regional Weather Roundup
Issued by NWS

Home | Current Version | Previous Version | Graphics & Text | Print | Product List | Glossary On
Versions: 1 2 3 4 5 6 7 8 9 10 11 12 13 14 15 16 17 18 19 20 21 22 23 24 25 26 27 28 29 30 31 32 33 34 35 36 37 38 39 40 41 42 43 44 45 46 47 48 49 50
097
ASUS43 KMPX 250201
RWRMN
WEATHER ROUNDUP FOR MINNESOTA
NATIONAL WEATHER SERVICE TWIN CITIES/CHANHASSEN MN
800 PM CST FRI NOV 24 2017


NOTE: "FAIR" INDICATES FEW OR NO CLOUDS BELOW 12,000 FEET WITH NO
SIGNIFICANT WEATHER AND/OR OBSTRUCTIONS TO VISIBILITY. N/A MEANS
CURRENT SKY AND/OR WEATHER CONDITIONS ARE NOT AVAILABLE.

MNZ060>063-068>070-250300-
   Twin Cities Metro

CITY           SKY/WX    TMP DP  RH WIND       PRES   REMARKS
TWIN CITIES    CLEAR     45  37  73 NW13      29.66R
ST PAUL        CLEAR     44  37  76 W13       29.66R
CRYSTAL        CLEAR     43  34  70 W13       29.65R
BLAINE         CLEAR     46  37  71 W13G21    29.64R
LAKEVILLE      CLEAR     43  37  81 NW13      29.66R
EDEN PRAIRIE   CLEAR     45  36  70 NW15G23   29.66R
SOUTH ST PAUL  CLEAR     46  36  68 W13G20    29.65R
LAKE ELMO      FAIR      43  36  75 W14       29.64R
$$
MNZ001>005-007-008-013>017-022>024-027-028-250300-
   Northwest Minnesota

CITY           SKY/WX    TMP DP  RH WIND       PRES   REMARKS
BEMIDJI        CLOUDY    37  32  81 NW18      29.63R
HALLOCK        CLOUDY    34  28  80 N18       29.70R WCI  23
ROSEAU         CLOUDY    34  27  75 NW21      29.63R WCI  22
WARROAD        CLOUDY    34  27  75 NW15G23   29.62R WCI  24
CROOKSTON      CLEAR     36  32  87 W12       29.71R
FOSSTON        CLOUDY    34  30  86 W8        29.67R WCI  27
DETROIT LAKES  CLEAR     39  34  81 NW16      29.69R
MOORHEAD       CLEAR     41  32  70 NW20G25   29.72R
PARK RAPIDS    CLEAR     38  33  82 NW17      29.63R
MAHNOMEN       FAIR      36  32  85 NW14G22   29.67R
$$
MNZ006-009>011-018-025>026-250300-
   North Central Minnesota

CITY           SKY/WX    TMP DP  RH WIND       PRES   REMARKS
BAUDETTE       CLOUDY    33  26  75 NW21G33   29.57R WCI  21
FLAG ISLAND    CLOUDY    28  18  64 NW32G43   29.60R WCI  12
INTL FALLS     MIX PCPN  37  28  70 W13       29.52R
WASKISH        CLOUDY    36  34  93 W13       29.58R
BIG FORK       CLOUDY    39  30  70 W5        29.55R
LONGVILLE      MOCLDY    37  32  81 W10G16    29.61R
GRAND RAPIDS   CLOUDY    38  32  79 NW12      29.59R
CRANE LAKE     CLOUDY    36  28  75 W3        29.51R
ORR            CLOUDY    37  27  65 W10       29.49R
COOK           CLOUDY    37  28  70 W9G18     29.52R
WALKER         CLOUDY    37  32  80 NW13G20   29.62R
$$
MNZ012-019>021-037-250300-
   Northeast Minnesota

CITY           SKY/WX    TMP DP  RH WIND       PRES   REMARKS
DULUTH         CLOUDY    38  35  89 W13       29.52R
ELY            CLOUDY    37  28  70 W13G20    29.48R
HIBBING        PTCLDY    37  31  78 W9G18     29.53R
EVELETH        MOCLDY    37  31  77 W14       29.53R
DULUTH HARBOR  PTCLDY    43  37  81 W17       29.55R
TWO HARBORS    CLOUDY    43  37  81 W7        29.49R
SILVER BAY     PTCLDY    39  32  75 W8        29.47R
GRAND MARAIS     N/A     40  29  64 W7        29.44R
G MARAIS ARPRT CLOUDY    34  25  69 W8G20     29.41R WCI  27
$$
MNZ029>031-032-039>041-046>048-054>057-064-250300-
   West Central Minnesota

CITY           SKY/WX    TMP DP  RH WIND       PRES   REMARKS
FERGUS FALLS   CLEAR     34  30  86 W9        29.74R WCI  26
WHEATON        CLEAR     45  34  65 W17G23    29.76R
MORRIS         PTCLDY    37  32  81 W12       29.73R
ALEXANDRIA     MOCLDY    40  33  76 W10       29.71R
ELBOW LAKE     FAIR      35  32  90 NW8       29.72R WCI  28
WADENA         CLEAR     37  30  75 W8        29.67R
GLENWOOD       PTCLDY    39  34  81 W9        29.72R
APPLETON       CLEAR     36  30  80 W6        29.75R
BENSON         PTCLDY    39  32  75 NW10      29.75R
ORTONVILLE     CLEAR     39  32  75 NW8       29.76R
MADISON        CLEAR     39  34  81 W7        29.77R
WILLMAR        FAIR      37  34  87 W7        29.74R
$$
MNZ033>034-036-042>043-049>051-058-059-250300-
   Central Minnesota

CITY           SKY/WX    TMP DP  RH WIND       PRES   REMARKS
ST CLOUD       CLEAR     41  33  73 W15       29.67R
SAUK CENTRE    FAIR      37  32  81 W9        29.70R
PAYNESVILLE    PTCLDY    39  34  83 W12       29.72R
AITKIN         CLEAR     36  30  80 W8        29.61R
PINE RIVER     CLEAR     36  30  80 NW5       29.67R
BRAINERD       CLEAR     40  32  73 W9        29.64R
STAPLES        CLEAR     34  30  86 W9        29.66R WCI  26
LONG PRAIRIE   FAIR      37  32  81 W10       29.68R
LITTLE FALLS   CLEAR     39  28  65 W9        29.67R
LITCHFIELD     CLEAR     43  36  75 W10G17    29.71R
BUFFALO        CLEAR     43  35  73 W14       29.69R
MAPLE LAKE     CLEAR     43  37  78 W12       29.69R
HUTCHINSON     CLEAR     41  36  81 W10       29.72R
$$
MNZ037-044-045-052-053-250300-
   East Central Minnesota

CITY           SKY/WX    TMP DP  RH WIND       PRES   REMARKS
PRINCETON      CLEAR     43  36  75 W9        29.66R
MORA           CLEAR     39  32  75 NW10G17   29.63R
CAMBRIDGE      CLEAR     45  34  65 W10G18    29.64R
RUSH CITY      PTCLDY    39  34  81 W7        29.62R
MOOSE LAKE     PTCLDY    37  32  81 W8        29.57R
HINCKLEY       FAIR      41  34  75 W7        29.61R
CLOQUET        CLOUDY    39  34  81 W13       29.55R
MCGREGOR       MOCLDY    37  34  87 W9        29.61R
$$
MNZ071>073-080-081-089-090-097-098-250300-
   Southwest Minnesota

CITY           SKY/WX    TMP DP  RH WIND       PRES   REMARKS
MONTEVIDEO     CLEAR     41  34  75 NW6       29.75R
GRANITE FALLS  CLEAR     42  35  75 W13       29.77R
CANBY          CLEAR     43  35  73 NW13      29.78R
MARSHALL       CLEAR     42  33  70 W12       29.78R
REDWOOD FALLS  CLEAR     44  32  62 NW10      29.74R
OLIVIA         CLEAR     41  32  70 NW9       29.73R
PIPESTONE      CLEAR     39  30  70 NW10      29.79R
WINDOM         CLEAR     45  28  53 W18       29.77R
WORTHINGTON    CLEAR     42  33  70 NW12      29.80R
JACKSON        CLEAR     43  32  65 NW18      29.78R
SLAYTON        CLEAR     40  32  75 NW9       29.78R
$$
MNZ065>067-074>077-082>085-091>093-250300-
   South Central Minnesota

CITY           SKY/WX    TMP DP  RH WIND       PRES   REMARKS
MANKATO        CLEAR     44  36  73 NW14G23   29.72R
NEW ULM        CLEAR     46  34  61 NW21G28   29.73R
ST JAMES       CLEAR     45  36  70 W18       29.76R
FAIRMONT       CLEAR     45  36  70 NW18      29.75R
GLENCOE        CLEAR     43  37  79 W12       29.70R
FARIBAULT      CLEAR     43  37  81 W13       29.69R
OWATONNA       CLEAR     43  37  81 W10       29.69R
WASECA         CLEAR     41  36  81 NW17      29.71R
ALBERT LEA     CLEAR     43  36  75 NW9       29.70R
$$
MNZ078>079-086>088-094>096-250300-
   Southeast Minnesota

CITY           SKY/WX    TMP DP  RH WIND       PRES   REMARKS
ROCHESTER      CLEAR     43  39  86 NW20      29.65R
RED WING       CLEAR     45  37  76 NW12      29.63R
STANTON        CLEAR     44  37  78 W14G20    29.66R
DODGE CENTER   CLEAR     43  36  75 W15G21    29.66R
WINONA         CLEAR     46  41  81 NW10      29.61R
PRESTON        CLEAR     44  38  82 NW16      29.64R
$$
ABBREVIATIONS USED IN REMARKS
   TC - TEMPERATURES IN CELSIUS
  WCI - WIND CHILL INDEX
   HX - HEAT INDEX
  VSB - VISIBILITY
$$




USA.gov is the U.S. government's official web portal to all federal, state and local government web resources and services.